Location: Zagreb
(45.8000°N, 16.0000°E)
Time: 20:00:20
(UTC+01:00)

deb Explorer IX - Pass Details

Date: 05 October 2020
Orbit: 537 x 1106 km, 38.8° (Epoch: 30 October)

Event Time Altitude Azimuth Distance (km) Brightness Sun altitude
Rises 16:09:46 0° 237° (WSW) 3,522 ? 21.7°
Reaches altitude 10° 16:12:46 10° 227° (SW) 2,480 ? 21.3°
Maximum altitude 16:17:50 31° 167° (SSE) 1,312 ? 20.5°
Drops below altitude 10° 16:22:15 10° 106° (ESE) 2,143 ? 19.9°
Sets 16:24:39 0° 95° (E) 2,974 ? 19.5°
